Wind_Speed
33 34 34 35 35 35 36 37 37 37 37 38 38 37 37 37 37 37 37 37 37 37 37 37 37 36 36 36 37 37 37 37 37 37 38 38 39 39 40 41 41 41 42 42 43 44 44 45 45 45 46 46
36 36 37 37 37 37 38 39 40 40 40 40 40 40 40 40 40 40 40 40 40 40 40 40 40 40 40 40 40 40 40 40 40 40 40 41 41 42 42 43 43 43 44 44 45 45 46 47 47 48 48 48
39 39 39 39 39 40 40 41 42 42 43 43 43 43 43 43 42 42 43 43 43 43 43 43 43 43 43 43 43 43 43 43 43 43 43 44 44 45 46 46 46 46 46 46 47 47 48 49 49 50 51 51
42 42 42 42 42 42 43 43 44 44 45 45 45 45 45 45 45 45 45 45 46 46 46 46 46 46 46 46 46 46 46 47 47 47 47 47 47 48 49 49 49 49 49 49 49 50 51 51 52 52 53 53
44 44 44 44 44 45 45 45 46 47 47 47 47 48 48 47 47 47 47 48 48 48 48 48 48 49 49 49 49 50 50 50 50 50 50 50 51 52 52 52 52 53 52 52 52 53 53 54 54 55 55 56
47 47 47 47 47 47 47 48 48 49 49 49 50 50 50 50 50 50 50 50 50 50 50 51 51 51 51 52 52 53 53 53 53 53 53 54 54 55 55 55 55 56 56 56 56 56 56 56 57 57 57 58
50 50 50 50 50 50 50 50 50 51 51 52 52 52 52 52 52 52 52 52 52 52 53 53 53 53 54 54 54 55 55 55 56 56 56 57 57 57 58 58 58 58 58 58 58 58 58 58 59 59 59 59
53 53 52 52 53 53 52 53 53 53 53 54 54 55 55 55 55 55 55 55 55 55 55 56 56 56 56 56 57 57 57 58 58 58 59 59 60 60 60 60 60 60 60 60 60 60 60 60 60 60 60 60
55 55 55 55 55 55 55 55 55 55 56 56 56 57 57 57 57 57 57 58 58 58 58 58 59 59 59 59 59 59 59 59 60 60 61 61 62 62 62 62 62 62 62 61 61 61 61 61 61 61 61 61
56 56 57 57 57 58 58 58 57 57 58 58 58 58 59 59 59 59 59 59 60 60 60 60 61 61 61 61 61 61 61 61 61 62 62 63 63 63 63 63 63 63 62 62 62 61 61 61 60 61 61 61
57 57 57 58 58 59 59 59 59 59 59 59 59 60 60 61 61 61 61 61 61 61 61 62 62 62 62 63 63 63 63 63 63 63 63 63 63 63 63 63 63 63 62 62 62 61 60 60 60 60 60 60
57 57 57 57 57 58 59 59 59 60 60 60 60 60 61 61 62 62 62 62 62 62 62 62 62 62 63 63 63 63 63 63 63 63 63 63 62 62 62 62 62 62 62 61 61 61 60 59 59 59 59 60
56 56 55 56 56 57 58 58 59 59 59 60 60 61 61 62 62 62 62 62 62 62 62 62 62 62 63 63 63 63 64 63 63 63 63 63 62 62 61 61 61 61 61 60 60 60 59 59 58 58 58 59
55 54 54 54 56 57 57 57 58 58 59 60 60 60 61 61 61 62 62 61 61 61 61 62 62 62 62 62 62 63 63 63 63 63 62 62 62 61 61 61 60 60 60 60 59 59 59 58 57 57 57 57
53 52 53 54 55 56 56 57 57 58 59 59 60 60 60 60 60 60 60 60 60 60 60 60 60 60 60 60 61 61 61 61 61 61 61 61 60 60 60 59 59 59 59 59 59 58 58 58 57 56 56 57
50 51 52 53 53 53 54 55 57 58 58 58 58 58 58 58 58 59 59 59 59 59 59 58 58 58 58 59 59 59 59 58 58 59 59 59 58 58 58 58 58 58 57 57 57 57 57 56 56 56 56 56
48 48 48 50 50 51 52 54 55 56 56 55 55 56 56 57 57 57 57 57 57 57 57 56 56 56 56 57 57 57 56 56 56 56 56 56 56 56 56 56 56 55 55 55 55 55 55 55 55 54 55 55
45 45 45 47 48 50 52 53 53 53 53 53 53 54 55 56 56 56 56 56 56 56 56 55 55 55 55 56 56 55 55 55 54 54 54 54 54 53 53 53 53 53 53 53 53 53 53 53 54 54 54 54
44 45 46 47 48 49 50 51 51 51 51 52 52 53 53 54 54 55 55 55 56 56 55 55 55 55 55 56 56 55 54 54 54 53 53 52 51 51 51 52 52 51 52 52 52 52 53 53 53 53 54 54
48 49 49 49 49 49 49 50 50 50 51 51 52 52 52 52 53 54 54 54 55 55 54 54 54 54 55 55 55 54 53 53 53 53 52 51 50 50 51 51 51 51 52 52 52 53 53 54 54 54 54 54
50 50 49 49 49 49 49 49 50 50 51 51 50 50 50 50 51 51 52 52 52 52 51 52 52 53 53 54 53 53 52 52 52 51 50 50 50 50 51 51 52 52 52 52 53 53 54 54 54 54 55 54
48 48 48 48 48 49 49 49 49 49 49 48 47 46 47 47 48 48 49 49 49 48 48 49 49 49 50 51 51 51 50 50 50 50 49 49 50 50 51 51 52 53 53 54 54 55 56 56 56 56 56 56
45 46 46 46 47 47 47 47 47 46 45 45 45 45 45 46 46 47 47 47 47 47 47 47 47 48 48 49 49 48 48 48 49 50 50 50 50 50 51 52 53 53 54 54 55 56 57 58 58 58 58 58
44 45 46 46 46 46 46 47 46 45 44 45 45 45 46 47 47 48 49 49 49 48 48 48 48 48 49 49 48 47 47 47 49 50 50 51 51 51 52 53 53 54 54 55 55 57 58 59 59 59 59 59
50 50 49 48 48 48 48 48 47 46 47 47 47 48 48 48 49 50 51 51 51 50 50 49 49 50 51 51 50 49 48 48 49 50 50 51 52 52 52 52 53 54 54 54 55 56 57 58 59 59 60 60
56 56 54 53 52 52 51 51 50 49 49 50 50 50 50 50 51 52 52 52 52 52 50 49 50 51 52 53 52 52 51 51 51 51 52 52 53 54 53 53 53 53 54 54 54 56 56 58 59 59 59 60
60 60 59 58 57 56 55 54 54 53 52 52 53 53 52 52 53 53 53 53 52 51 50 49 49 50 52 52 52 52 53 53 53 53 53 54 54 55 54 54 54 54 54 53 54 55 55 57 59 59 60 60
63 62 61 61 59 59 58 57 56 56 55 56 56 55 55 55 55 55 54 54 53 52 50 50 49 50 51 51 50 51 52 53 54 54 54 55 55 55 55 55 55 55 54 54 55 55 54 56 58 60 61 62
64 64 63 63 62 61 60 59 59 59 59 59 59 59 58 58 58 57 57 56 55 53 52 52 51 51 51 50 50 50 50 51 52 53 54 54 54 55 55 55 55 55 55 56 56 55 54 56 58 59 61 62
62 63 63 63 62 61 60 59 59 60 60 60 61 61 60 60 60 60 59 59 57 56 55 55 54 53 52 52 51 50 50 50 51 52 53 54 54 54 55 56 55 55 56 55 55 55 56 57 58 58 59 59
61 61 62 62 61 60 60 60 60 61 62 61 61 61 61 61 61 61 61 61 60 59 58 58 57 55 55 54 53 51 50 49 50 51 52 53 53 54 55 56 55 55 56 56 56 57 58 57 56 56 57 56
Wind_Direction
277 277 276 276 275 275 275 275 274 274 274 274 274 273 273 273 273 273 272 272 272 273 273 272 272 272 272 272 272 271 271 271 272 272 272 273 273 274 275 276 278 280 280 281 281 282 281 280 280 279 277 275
276 276 276 275 275 274 274 273 273 273 272 272 272 272 272 272 272 272 272 272 271 271 271 271 271 271 270 270 270 270 269 269 269 269 269 269 270 270 271 272 274 276 277 278 279 279 279 279 279 279 278 277
276 276 275 275 274 274 273 273 273 272 272 272 272 272 271 271 271 271 272 272 271 271 271 271 270 270 270 270 269 269 269 269 268 268 268 268 268 268 268 269 271 272 273 274 275 276 276 276 276 276 276 277
276 275 275 274 274 274 273 273 272 272 272 271 271 272 271 271 271 271 271 271 271 271 271 271 271 271 270 270 270 269 269 269 268 268 268 267 268 267 267 268 268 269 270 271 272 272 273 273 273 274 274 274
276 276 276 275 275 274 273 273 272 272 272 271 271 271 271 272 272 271 271 271 271 271 271 271 271 271 271 270 270 269 269 269 268 268 267 267 267 267 267 267 267 267 267 268 269 269 270 271 271 271 272 272
277 277 276 276 275 275 274 273 272 272 272 272 271 271 271 271 272 272 272 271 272 272 272 272 272 271 271 270 270 270 269 269 269 268 268 267 267 267 267 266 266 266 266 266 267 267 268 268 269 269 270 270
278 277 277 276 276 275 275 273 273 272 272 272 272 271 271 271 271 272 272 272 272 272 272 272 272 271 271 271 270 270 270 269 269 268 268 267 267 267 267 267 266 266 266 266 266 266 267 267 268 268 269 269
278 278 277 277 276 276 275 274 274 273 273 272 272 272 272 272 271 272 272 272 272 272 272 272 271 271 271 270 270 269 269 269 268 268 268 267 267 267 267 267 267 267 267 267 267 267 267 268 268 268 269 269
278 278 278 278 277 277 276 275 274 274 273 273 272 272 271 271 271 271 271 272 272 271 271 271 271 271 271 270 270 269 269 268 268 268 267 267 267 267 267 267 268 268 268 268 268 268 268 269 269 269 270 270
279 279 278 278 278 277 276 275 274 273 273 272 272 271 271 270 270 271 271 272 272 272 272 271 271 271 271 271 270 270 269 268 268 267 267 267 267 267 268 268 269 269 269 270 270 270 270 270 270 271 271 271
278 277 277 277 277 276 275 275 274 273 272 272 271 271 271 271 271 271 271 271 272 272 272 272 272 272 271 271 271 270 270 269 269 268 268 268 268 268 269 269 270 270 271 271 271 271 272 272 272 273 273 273
276 276 275 275 275 275 275 275 274 273 272 272 271 271 271 271 271 271 271 271 272 272 272 272 272 272 272 272 271 271 271 270 270 270 270 270 270 270 271 271 271 272 272 272 272 273 273 273 274 274 275 275
275 275 275 275 274 273 273 273 273 273 273 272 271 271 271 271 271 271 272 272 272 272 273 273 273 273 273 273 273 272 272 272 272 272 272 272 272 272 272 272 273 273 273 273 274 274 274 275 275 275 276 276
274 275 274 273 272 272 272 272 272 272 272 272 272 272 272 272 272 272 273 273 273 273 273 273 274 274 274 274 274 274 274 274 273 273 273 273 273 273 273 273 274 274 274 274 275 275 275 276 276 276 276 276
274 273 272 271 271 271 271 271 271 271 271 272 272 273 273 273 274 274 274 274 274 274 274 274 274 274 274 274 274 274 275 275 275 274 274 274 274 274 274 274 274 274 275 275 275 276 276 276 277 277 276 276
273 272 271 270 270 270 270 269 270 270 271 272 274 274 275 275 275 275 275 275 275 275 275 275 275 275 275 275 275 275 275 276 276 276 275 275 275 275 275 275 275 275 276 276 276 276 276 276 277 276 276 276
272 271 270 269 269 269 269 269 269 271 273 274 275 276 276 276 276 276 276 276 275 275 274 275 275 275 275 275 275 275 276 277 277 277 277 277 276 276 276 276 276 276 276 276 276 276 276 276 276 275 275 274
271 270 269 269 269 269 270 271 273 274 275 276 276 276 276 276 276 276 276 276 275 275 274 274 275 275 276 276 276 276 277 278 278 278 278 278 278 277 277 276 276 276 275 275 275 275 274 274 274 274 273 273
267 267 268 269 270 272 273 274 276 276 276 275 276 276 276 276 276 276 275 275 275 275 275 275 275 276 276 276 277 277 278 278 278 278 278 278 278 277 276 275 274 273 273 273 273 272 272 272 272 271 271 270
266 267 269 271 272 273 274 275 275 275 274 274 274 274 275 275 275 275 274 274 274 275 275 275 275 275 276 276 277 278 278 278 278 278 278 277 276 275 274 273 271 270 270 270 270 270 270 270 270 269 269 269
269 269 270 271 271 272 272 272 272 272 272 272 273 273 273 274 274 274 274 274 274 275 275 275 275 276 276 277 277 278 278 278 278 278 277 276 274 273 271 270 269 268 267 267 267 267 267 267 268 268 268 268
268 267 267 267 267 267 267 268 268 269 270 271 272 272 273 273 274 275 275 275 276 276 276 276 276 277 277 277 278 278 278 278 278 277 276 275 274 273 271 270 268 267 266 265 265 265 265 266 266 266 267 267
268 267 266 265 265 265 265 266 267 268 270 271 272 274 275 276 277 278 278 278 278 278 278 278 278 278 278 279 279 279 279 279 278 277 276 276 275 275 273 271 269 267 266 266 266 266 266 266 266 267 267 268
268 267 266 267 267 268 269 269 270 272 273 274 276 277 279 280 281 281 281 281 280 279 279 279 279 279 280 280 280 280 280 279 278 277 277 277 276 275 274 273 271 268 267 267 267 267 268 268 268 268 269 269
268 269 269 269 270 271 273 274 276 277 278 278 279 281 281 282 283 283 282 282 281 281 281 280 280 280 280 279 279 280 279 278 278 278 277 277 276 275 274 273 272 270 269 268 268 269 269 270 270 270 270 270
271 272 272 271 272 273 274 275 277 277 277 278 279 280 280 281 281 281 280 281 281 281 281 281 280 280 279 279 280 280 279 279 277 277 276 276 276 274 274 273 272 271 269 269 269 269 269 270 271 270 270 271
272 272 272 272 272 273 274 274 274 274 274 274 274 275 276 276 276 277 277 277 277 277 278 278 278 278 279 280 280 280 280 279 278 276 276 276 275 274 273 273 272 271 270 269 269 268 269 270 271 271 271 271
274 273 273 272 273 273 273 273 273 272 272 271 271 271 272 272 272 273 273 273 273 273 274 274 275 275 276 278 279 279 279 279 277 276 275 275 275 275 273 271 271 271 270 269 268 269 269 269 270 272 272 271
276 275 275 274 274 273 273 273 274 274 274 274 273 273 272 272 271 271 271 271 271 271 271 271 272 272 273 274 275 276 277 278 277 276 274 274 274 275 273 271 270 271 271 269 269 269 269 270 270 271 272 273
278 278 278 277 277 277 277 277 277 277 277 277 278 277 276 275 273 272 271 270 270 270 270 269 270 270 270 271 272 273 274 275 276 275 273 273 273 274 274 271 269 270 270 269 268 267 268 270 271 271 272 273
277 277 277 277 276 276 276 275 275 276 276 277 278 278 277 277 276 275 274 273 272 271 271 271 270 270 270 270 270 270 271 272 273 273 272 271 271 272 272 271 270 269 270 269 269 269 270 271 270 270 272 272
Height
5728 5727 5727 5726 5725 5725 5724 5723 5723 5722 5721 5721 5720 5719 5719 5718 5718 5717 5717 5716 5715 5715 5714 5713 5713 5712 5711 5711 5710 5710 5709 5709 5709 5708 5708 5707 5707 5707 5706 5705 5705 5706 5706 5706 5705 5705 5705 5704 5704 5704 5704 5704
5724 5723 5722 5721 5720 5720 5719 5718 5718 5717 5716 5715 5715 5714 5714 5713 5713 5713 5712 5711 5711 5710 5709 5708 5708 5707 5707 5706 5706 5705 5705 5704 5704 5704 5703 5703 5702 5702 5701 5701 5701 5702 5701 5701 5701 5701 5700 5700 5700 5700 5699 5699
5719 5718 5717 5716 5715 5715 5714 5713 5712 5712 5711 5710 5709 5709 5708 5708 5708 5707 5707 5706 5705 5705 5704 5703 5703 5702 5702 5701 5701 5700 5700 5700 5699 5699 5699 5698 5698 5697 5696 5696 5697 5697 5696 5697 5697 5697 5696 5695 5695 5695 5694 5694
5714 5713 5712 5711 5711 5710 5709 5708 5707 5706 5706 5705 5704 5703 5703 5702 5702 5702 5701 5700 5699 5699 5698 5698 5697 5697 5696 5696 5695 5695 5695 5694 5694 5694 5693 5693 5693 5692 5691 5691 5691 5691 5691 5691 5691 5691 5690 5690 5690 5690 5690 5689
5709 5708 5707 5707 5706 5705 5704 5703 5702 5701 5700 5699 5698 5698 5697 5696 5696 5695 5695 5694 5693 5693 5692 5692 5692 5691 5691 5690 5690 5689 5689 5689 5688 5688 5688 5688 5687 5686 5685 5686 5686 5685 5685 5685 5685 5685 5684 5684 5684 5684 5684 5683
5703 5702 5702 5701 5700 5700 5699 5698 5696 5695 5694 5694 5693 5692 5691 5690 5690 5689 5688 5688 5687 5686 5686 5686 5685 5685 5685 5684 5684 5683 5683 5683 5682 5682 5682 5682 5681 5680 5679 5680 5679 5679 5679 5679 5678 5678 5678 5678 5678 5678 5677 5677
5697 5696 5696 5695 5695 5694 5693 5692 5691 5690 5689 5688 5687 5686 5685 5684 5684 5683 5682 5682 5681 5680 5680 5679 5679 5678 5678 5678 5677 5677 5676 5676 5676 5675 5675 5675 5675 5673 5673 5672 5672 5672 5672 5672 5672 5671 5671 5671 5671 5671 5671 5670
5690 5690 5689 5689 5688 5687 5686 5686 5685 5684 5683 5682 5681 5680 5679 5678 5677 5676 5676 5675 5674 5674 5673 5672 5672 5672 5671 5671 5670 5670 5669 5669 5669 5668 5668 5668 5667 5667 5666 5665 5665 5665 5664 5664 5664 5664 5664 5664 5664 5664 5664 5663
5684 5683 5683 5682 5681 5680 5680 5679 5678 5677 5676 5675 5674 5673 5672 5671 5670 5670 5669 5668 5667 5667 5667 5666 5665 5665 5664 5664 5663 5663 5662 5662 5662 5661 5661 5661 5660 5659 5659 5658 5657 5657 5657 5657 5656 5656 5657 5657 5657 5657 5656 5656
5678 5677 5676 5675 5674 5673 5672 5671 5671 5670 5669 5668 5667 5666 5665 5664 5663 5663 5662 5661 5660 5660 5659 5659 5658 5657 5657 5656 5656 5655 5655 5655 5655 5654 5654 5653 5653 5652 5651 5650 5650 5649 5649 5649 5648 5648 5648 5649 5649 5649 5648 5648
5671 5670 5669 5667 5666 5665 5663 5663 5662 5661 5661 5660 5659 5658 5657 5657 5656 5655 5655 5654 5653 5652 5652 5651 5651 5650 5649 5649 5648 5648 5648 5647 5647 5646 5646 5646 5645 5644 5644 5643 5642 5642 5641 5641 5640 5640 5640 5640 5641 5640 5640 5640
5664 5663 5662 5660 5659 5657 5656 5655 5653 5653 5653 5652 5651 5650 5649 5649 5648 5648 5647 5647 5646 5645 5645 5644 5643 5643 5642 5641 5641 5640 5640 5640 5640 5639 5638 5638 5637 5637 5636 5635 5635 5634 5634 5633 5633 5632 5633 5633 5633 5632 5632 5632
5656 5655 5655 5653 5652 5650 5648 5647 5645 5645 5644 5643 5643 5642 5642 5642 5641 5640 5640 5639 5638 5638 5637 5636 5636 5635 5634 5634 5633 5633 5633 5633 5632 5632 5631 5630 5630 5629 5628 5628 5627 5627 5627 5626 5625 5625 5625 5625 5625 5625 5625 5624
5649 5648 5647 5645 5643 5642 5641 5639 5638 5638 5636 5635 5635 5634 5634 5634 5634 5633 5632 5632 5631 5631 5630 5629 5629 5628 5627 5626 5626 5625 5625 5625 5625 5624 5623 5623 5622 5622 5621 5620 5620 5620 5619 5619 5618 5617 5617 5618 5618 5617 5617 5617
5642 5640 5639 5637 5636 5635 5634 5632 5631 5630 5629 5628 5628 5627 5627 5627 5626 5625 5625 5624 5623 5623 5622 5622 5621 5620 5619 5618 5618 5618 5618 5617 5617 5616 5616 5615 5615 5614 5614 5613 5612 5612 5612 5611 5611 5610 5610 5610 5610 5610 5610 5610
5634 5633 5631 5630 5629 5628 5626 5625 5625 5623 5623 5622 5621 5621 5620 5620 5619 5618 5617 5616 5616 5615 5615 5614 5613 5612 5612 5610 5610 5611 5610 5610 5609 5608 5608 5608 5607 5607 5606 5605 5605 5605 5604 5604 5603 5603 5603 5603 5603 5603 5602 5602
5626 5625 5624 5623 5622 5621 5619 5618 5618 5618 5617 5616 5615 5614 5613 5612 5611 5611 5610 5609 5608 5608 5607 5606 5606 5605 5604 5602 5603 5603 5603 5602 5602 5601 5601 5600 5600 5599 5598 5598 5597 5597 5596 5596 5596 5595 5595 5595 5595 5595 5595 5595
5619 5618 5617 5616 5615 5614 5613 5612 5613 5613 5611 5610 5609 5608 5606 5605 5604 5603 5602 5601 5600 5600 5600 5599 5598 5597 5596 5595 5595 5596 5595 5595 5594 5594 5593 5593 5592 5592 5591 5590 5590 5589 5589 5588 5588 5588 5588 5588 5588 5588 5587 5587
5613 5611 5610 5609 5608 5608 5607 5607 5607 5606 5604 5603 5602 5601 5600 5598 5596 5595 5595 5594 5592 5592 5592 5591 5591 5590 5588 5587 5587 5588 5588 5587 5587 5586 5586 5586 5585 5584 5583 5583 5583 5582 5581 5581 5580 5580 5580 5580 5580 5580 5580 5580
5607 5606 5604 5604 5603 5602 5601 5600 5600 5599 5597 5596 5596 5594 5593 5591 5589 5587 5587 5586 5584 5584 5584 5583 5583 5582 5580 5579 5580 5581 5580 5580 5579 5578 5578 5578 5577 5576 5576 5576 5575 5574 5574 5573 5573 5573 5572 5572 5573 5573 5572 5573
5601 5600 5599 5598 5596 5595 5594 5593 5592 5590 5589 5589 5588 5587 5585 5583 5581 5580 5579 5578 5576 5576 5576 5575 5575 5574 5573 5572 5573 5573 5573 5572 5571 5570 5570 5569 5569 5569 5568 5568 5567 5567 5567 5566 5566 5565 5565 5564 5565 5565 5565 5565
5594 5593 5592 5590 5589 5588 5587 5586 5585 5583 5582 5582 5581 5580 5578 5576 5574 5573 5572 5570 5569 5569 5568 5568 5568 5567 5566 5565 5566 5566 5566 5565 5564 5563 5562 5561 5561 5561 5561 5560 5560 5560 5560 5560 5559 5559 5558 5557 5558 5558 5558 5558
5586 5585 5584 5583 5582 5581 5580 5579 5577 5576 5576 5575 5574 5573 5571 5569 5568 5567 5565 5564 5563 5562 5562 5561 5561 5560 5559 5559 5559 5559 5559 5558 5557 5555 5555 5554 5554 5554 5553 5553 5553 5552 5553 5553 5553 5552 5551 5550 5551 5551 5551 5551
5579 5577 5576 5575 5574 5574 5573 5571 5570 5570 5569 5568 5567 5566 5564 5563 5562 5560 5558 5557 5556 5555 5555 5555 5554 5553 5552 5552 5552 5552 5552 5551 5549 5548 5548 5548 5547 5547 5546 5546 5545 5545 5546 5546 5546 5545 5544 5543 5544 5544 5544 5544
5572 5571 5570 5569 5568 5567 5566 5564 5564 5564 5562 5561 5560 5559 5557 5556 5555 5553 5551 5550 5549 5548 5548 5548 5547 5546 5545 5544 5544 5545 5545 5544 5543 5542 5541 5541 5540 5540 5539 5539 5538 5538 5538 5539 5539 5538 5537 5536 5536 5537 5537 5536
5566 5565 5564 5563 5562 5561 5560 5559 5558 5557 5555 5554 5553 5551 5550 5549 5547 5545 5544 5542 5542 5541 5541 5541 5540 5539 5537 5536 5536 5537 5537 5536 5536 5535 5534 5533 5533 5533 5532 5532 5531 5531 5531 5532 5532 5531 5531 5530 5529 5529 5530 5529
5559 5557 5556 5555 5555 5554 5553 5552 5551 5550 5548 5546 5545 5544 5543 5541 5540 5538 5537 5536 5535 5534 5534 5533 5533 5531 5530 5529 5529 5529 5529 5529 5528 5527 5527 5526 5525 5525 5525 5525 5524 5524 5524 5525 5524 5524 5525 5524 5522 5522 5522 5522
5552 5550 5549 5547 5547 5546 5546 5545 5544 5542 5541 5538 5536 5536 5535 5533 5532 5531 5530 5528 5527 5527 5527 5526 5525 5524 5523 5522 5522 5522 5522 5522 5521 5520 5519 5518 5518 5517 5517 5517 5517 5516 5517 5517 5516 5517 5519 5518 5516 5515 5514 5514
5545 5544 5542 5541 5540 5540 5539 5539 5538 5536 5533 5531 5530 5529 5528 5526 5524 5523 5522 5520 5519 5519 5519 5518 5518 5517 5516 5516 5515 5515 5515 5515 5514 5513 5512 5511 5510 5510 5509 5509 5510 5510 5509 5509 5509 5510 5511 5510 5510 5509 5507 5506
5538 5537 5536 5535 5534 5533 5532 5532 5531 5528 5526 5525 5524 5523 5521 5519 5517 5516 5514 5513 5511 5511 5511 5510 5510 5510 5509 5509 5508 5508 5507 5507 5506 5505 5504 5504 5503 5503 5502 5501 5502 5503 5502 5501 5501 5502 5502 5502 5503 5503 5501 5499
5531 5530 5529 5528 5527 5525 5524 5524 5523 5520 5518 5517 5516 5514 5513 5511 5510 5508 5507 5506 5504 5503 5502 5502 5502 5502 5501 5501 5501 5500 5500 5500 5499 5498 5497 5496 5496 5496 5495 5494 5495 5494 5493 5494 5494 5493 5494 5495 5496 5496 5495 5493